TimeCDT,TemperatureF,Dew PointF,Humidity,Sea Level PressureIn,VisibilityMPH,Wind Direction,Wind SpeedMPH,Gust SpeedMPH,PrecipitationIn,Events,Conditions,WindDirDegrees,DateUTC
12:15 AM,35.8,26.6,69,30.30,10.0,Calm,Calm,-,N/A,,Mostly Cloudy,0,2012-10-28 05:15:00
12:55 AM,35.6,26.8,70,30.30,10.0,Calm,Calm,-,N/A,,Overcast,0,2012-10-28 05:55:00
1:15 AM,34.7,27.3,74,30.29,10.0,Calm,Calm,-,N/A,,Mostly Cloudy,0,2012-10-28 06:15:00
1:35 AM,33.4,27.3,78,30.29,10.0,Calm,Calm,-,N/A,,Mostly Cloudy,0,2012-10-28 06:35:00
1:55 AM,33.3,27.3,79,30.29,10.0,Calm,Calm,-,N/A,,Overcast,0,2012-10-28 06:55:00
2:15 AM,33.1,28.4,83,30.29,10.0,Calm,Calm,-,N/A,,Overcast,0,2012-10-28 07:15:00
2:35 AM,33.4,28.6,82,30.29,10.0,Calm,Calm,-,N/A,,Overcast,0,2012-10-28 07:35:00
2:55 AM,34.0,28.9,82,30.29,10.0,Calm,Calm,-,N/A,,Overcast,0,2012-10-28 07:55:00
3:15 AM,34.3,29.1,81,30.29,10.0,Calm,Calm,-,N/A,,Overcast,0,2012-10-28 08:15:00
3:35 AM,33.1,28.8,84,30.29,10.0,Calm,Calm,-,N/A,,Overcast,0,2012-10-28 08:35:00
3:55 AM,33.6,29.1,84,30.28,10.0,Calm,Calm,-,N/A,,Overcast,0,2012-10-28 08:55:00
4:15 AM,33.6,28.9,83,30.28,10.0,Calm,Calm,-,N/A,,Overcast,0,2012-10-28 09:15:00
4:35 AM,33.4,28.2,81,30.28,10.0,Calm,Calm,-,N/A,,Mostly Cloudy,0,2012-10-28 09:35:00
4:55 AM,33.6,28.6,82,30.28,10.0,Calm,Calm,-,N/A,,Overcast,0,2012-10-28 09:55:00
5:15 AM,33.4,28.8,83,30.28,10.0,Calm,Calm,-,N/A,,Overcast,0,2012-10-28 10:15:00
5:35 AM,33.1,28.2,82,30.29,10.0,Calm,Calm,-,N/A,,Overcast,0,2012-10-28 10:35:00
5:55 AM,32.4,27.5,82,30.29,10.0,Calm,Calm,-,N/A,,Mostly Cloudy,0,2012-10-28 10:55:00
6:15 AM,32.0,27.1,82,30.29,10.0,Calm,Calm,-,N/A,,Scattered Clouds,0,2012-10-28 11:15:00
6:35 AM,31.6,26.6,82,30.29,10.0,Calm,Calm,-,N/A,,Scattered Clouds,0,2012-10-28 11:35:00
6:55 AM,30.9,26.4,83,30.30,10.0,Calm,Calm,-,N/A,,Clear,0,2012-10-28 11:55:00
7:15 AM,31.1,26.6,83,30.30,10.0,Calm,Calm,-,N/A,,Scattered Clouds,0,2012-10-28 12:15:00
7:35 AM,30.9,26.4,83,30.30,10.0,Calm,Calm,-,N/A,,Mostly Cloudy,0,2012-10-28 12:35:00
7:55 AM,30.2,26.4,86,30.31,10.0,Calm,Calm,-,N/A,,Mostly Cloudy,0,2012-10-28 12:55:00
8:15 AM,30.4,26.6,86,30.31,10.0,Calm,Calm,-,N/A,,Mostly Cloudy,0,2012-10-28 13:15:00
8:35 AM,31.6,27.5,85,30.32,10.0,Calm,Calm,-,N/A,,Scattered Clouds,0,2012-10-28 13:35:00
8:55 AM,32.4,28.6,86,30.33,10.0,Calm,Calm,-,N/A,,Clear,0,2012-10-28 13:55:00
9:15 AM,34.5,29.3,81,30.33,10.0,Calm,Calm,-,N/A,,Clear,0,2012-10-28 14:15:00
9:35 AM,36.9,31.1,80,30.33,10.0,Calm,Calm,-,N/A,,Clear,0,2012-10-28 14:35:00
9:55 AM,38.5,30.9,74,30.33,10.0,South,8.1,-,N/A,,Clear,180,2012-10-28 14:55:00
10:15 AM,40.3,31.1,70,30.33,10.0,South,9.2,-,N/A,,Clear,190,2012-10-28 15:15:00
10:35 AM,42.1,30.7,64,30.33,10.0,South,11.5,-,N/A,,Clear,190,2012-10-28 15:35:00
10:55 AM,42.8,29.8,60,30.32,10.0,SSW,10.4,-,N/A,,Clear,210,2012-10-28 15:55:00
11:15 AM,43.7,29.7,58,30.33,10.0,South,10.4,-,N/A,,Clear,190,2012-10-28 16:15:00
11:35 AM,45.0,30.2,56,30.32,10.0,South,9.2,-,N/A,,Clear,180,2012-10-28 16:35:00
12:15 PM,47.5,30.6,52,30.31,10.0,South,9.2,-,N/A,,Clear,180,2012-10-28 17:15:00
12:35 PM,47.8,30.0,50,30.30,10.0,South,10.4,-,N/A,,Clear,180,2012-10-28 17:35:00
12:55 PM,47.7,29.3,49,30.29,10.0,SSE,9.2,-,N/A,,Clear,150,2012-10-28 17:55:00
1:15 PM,48.2,29.1,48,30.29,10.0,South,10.4,-,N/A,,Clear,180,2012-10-28 18:15:00
1:35 PM,49.3,30.0,48,30.27,10.0,SSE,10.4,-,N/A,,Clear,160,2012-10-28 18:35:00
1:55 PM,49.5,29.1,46,30.26,10.0,South,10.4,-,N/A,,Clear,170,2012-10-28 18:55:00
2:15 PM,50.7,30.0,45,30.26,10.0,South,8.1,17.3,N/A,,Clear,180,2012-10-28 19:15:00
2:35 PM,50.7,29.5,44,30.25,10.0,SSE,6.9,-,N/A,,Clear,160,2012-10-28 19:35:00
2:55 PM,51.3,29.8,44,30.24,10.0,SSE,10.4,-,N/A,,Clear,160,2012-10-28 19:55:00
3:15 PM,50.9,29.1,43,30.23,10.0,SSE,11.5,-,N/A,,Clear,150,2012-10-28 20:15:00
3:35 PM,51.3,28.8,42,30.23,10.0,SSE,9.2,-,N/A,,Clear,160,2012-10-28 20:35:00
3:55 PM,51.6,29.3,42,30.23,10.0,SSE,9.2,-,N/A,,Clear,160,2012-10-28 20:55:00
4:15 PM,51.4,28.9,42,30.23,10.0,SSE,8.1,-,N/A,,Clear,150,2012-10-28 21:15:00
4:35 PM,51.4,28.9,42,30.23,10.0,South,10.4,-,N/A,,Clear,180,2012-10-28 21:35:00
4:55 PM,50.9,28.6,42,30.23,10.0,South,11.5,-,N/A,,Clear,170,2012-10-28 21:55:00
5:15 PM,50.5,28.6,43,30.23,10.0,South,8.1,-,N/A,,Clear,170,2012-10-28 22:15:00
5:35 PM,49.6,28.9,45,30.23,10.0,South,8.1,-,N/A,,Clear,170,2012-10-28 22:35:00
5:55 PM,48.0,29.3,48,30.22,10.0,SSE,4.6,-,N/A,,Clear,150,2012-10-28 22:55:00
6:15 PM,47.3,28.4,48,30.22,10.0,SSE,8.1,-,N/A,,Clear,150,2012-10-28 23:15:00
6:35 PM,46.2,28.6,50,30.23,10.0,SE,6.9,-,N/A,,Clear,140,2012-10-28 23:35:00
6:55 PM,45.1,28.8,53,30.22,10.0,SE,6.9,-,N/A,,Clear,140,2012-10-28 23:55:00
7:15 PM,44.6,28.4,53,30.23,10.0,SSE,6.9,-,N/A,,Clear,150,2012-10-29 00:15:00
7:35 PM,43.9,28.4,55,30.23,10.0,Calm,Calm,-,N/A,,Clear,0,2012-10-29 00:35:00
7:55 PM,41.5,29.3,62,30.23,10.0,Calm,Calm,-,N/A,,Scattered Clouds,0,2012-10-29 00:55:00
8:15 PM,43.9,28.9,56,30.23,10.0,SSE,8.1,-,N/A,,Overcast,150,2012-10-29 01:15:00
8:55 PM,43.9,29.3,57,30.23,10.0,SSE,6.9,-,N/A,,Overcast,150,2012-10-29 01:55:00
9:15 PM,43.3,29.7,59,30.22,10.0,SSE,3.5,-,N/A,,Scattered Clouds,150,2012-10-29 02:15:00
9:35 PM,43.0,30.2,61,30.23,10.0,SSE,6.9,-,N/A,,Mostly Cloudy,150,2012-10-29 02:35:00
9:55 PM,43.7,29.8,58,30.23,10.0,SE,8.1,-,N/A,,Overcast,140,2012-10-29 02:55:00
10:35 PM,43.7,29.1,57,30.24,10.0,SE,10.4,-,N/A,,Overcast,140,2012-10-29 03:35:00
10:55 PM,43.2,29.3,58,30.25,10.0,SE,9.2,-,N/A,,Overcast,140,2012-10-29 03:55:00
11:15 PM,43.0,29.3,59,30.25,10.0,SE,10.4,-,N/A,,Mostly Cloudy,140,2012-10-29 04:15:00
11:55 PM,42.8,29.7,60,30.26,10.0,SSE,5.8,-,N/A,,Overcast,150,2012-10-29 04:55:00